Location: Days
(41.3591°N, 106.7339°W)
Time: 20:41:42
(UTC+00:00)

O/OREOS (USA 219) - Visible Passes

Search period start: 28 June 2022 00:00
Search period end: 08 July 2022 00:00
Orbit: 621 x 646 km, 72.0° (Epoch: 22 May)

Date Brightness Start Highest point End Pass type
(mag) Time Alt. Az. Time Alt. Az. Time Alt. Az.
28 Jun ? 07:49:57 10° N 07:54:21 43° ENE 07:55:38 34° ESE visible
28 Jun ? 09:30:12 10° NW 09:33:02 19° W 09:33:02 19° W visible
29 Jun ? 06:34:36 10° NNE 06:36:24 12° NE 06:38:13 10° ENE visible
29 Jun ? 08:11:51 10° NNW 08:16:28 85° WSW 08:16:42 80° S visible
30 Jun ? 06:55:11 10° N 06:58:54 23° ENE 07:00:25 20° E visible
30 Jun ? 08:34:10 10° NW 08:37:50 35° W 08:37:50 35° W visible
01 Jul ? 07:16:43 10° NNW 07:21:11 48° ENE 07:21:38 46° E visible
01 Jul ? 08:57:14 10° WNW 08:59:03 16° W 08:59:03 16° W visible
02 Jul ? 06:01:04 10° NNE 06:03:18 13° NE 06:05:28 10° E visible
02 Jul ? 07:38:40 10° NNW 07:42:53 70° WNW 07:42:53 70° WNW visible
03 Jul ? 06:21:53 10° N 06:25:46 26° ENE 06:26:46 24° E visible
03 Jul ? 08:01:04 10° NW 08:04:11 30° WNW 08:04:11 30° WNW visible
04 Jul ? 06:43:29 10° NNW 06:48:01 54° ENE 06:48:07 54° ENE visible
04 Jul ? 08:24:19 10° WNW 08:25:32 13° WNW 08:25:32 13° WNW visible
05 Jul ? 05:27:36 10° NNE 05:30:11 15° NE 05:32:04 12° ENE visible
05 Jul ? 07:05:29 10° NNW 07:09:30 60° WNW 07:09:30 60° WNW visible
06 Jul ? 05:48:36 10° N 05:52:37 28° ENE 05:53:29 26° E visible
06 Jul ? 07:27:58 10° NW 07:30:55 27° W 07:30:55 27° W visible
07 Jul ? 06:10:16 10° NNW 06:14:51 60° ENE 06:14:57 60° ENE visible
07 Jul ? 07:51:29 10° WNW 07:52:23 12° W 07:52:23 12° W visible
